Terug naar catalogus

CZ-6A DEB

ActiefPO
NORAD 60779·DEBRIS·🇨🇳 China

Gelanceerd Aug 6, 2024 vanaf Taiyuan Satellite Launch Center

Loading…

Volgende Passages (komende 24 uur)

TLE

VersSource: Space-Track

Epoch: Sep 14, 2026, 08:24 UTC

1 60779U 24140FE  26257.35041793  .00009145  00000-0  11080-2 0  9995
2 60779  88.9668 254.6485 0071078 253.7558 105.5839 14.81730214111722

Volg CZ-6A DEB in realtime met AllMySat

Download on the App Store